Ottumwa, IA

1:51 PM CDT on July 24, 2017 (GMT -0500)
Ottumwa Industrial

Weather History for KOTM - February, 2013

Change the Weather History Date:

Saturday, February 9, 2013

  Actual Average Record
Temperature  
Mean Temperature 32 °F 25 °F  
Max Temperature 36 °F 34 °F 68 °F (1943)
Min Temperature 28 °F 16 °F -23 °F (1899)
Degree Days  
Heating Degree Days 33 40  
Month to date heating degree days 347 367  
Since 1 July heating degree days 3839 4189  
Cooling Degree Days 0 0  
Month to date cooling degree days 0 0  
Year to date cooling degree days 0 0  
Moisture  
Dew Point 26 °F    
Average Humidity 78    
Maximum Humidity 85    
Minimum Humidity 70    
Precipitation  
Precipitation 0.05 in 0.04 in 0.77 in (2001)
Month to date precipitation 0.57 0.30  
Year to date precipitation 2.09 1.20  
Sea Level Pressure  
Sea Level Pressure 30.15 in    
Wind  
Wind Speed 13 mph (SSE)    
Max Wind Speed 21 mph    
Max Gust Speed 24 mph    
Visibility 9 miles    
Events Rain    
T = Trace of Precipitation, MM = Missing Value Source: NWS Daily Summary

Daily Weather History Graph

Daily Weather History Graph

Search for Another Location

Airport or City:

Trip Planner

Search our weather history database for the weather conditions in past years. The results will help you decide how hot, cold, wet, or windy it might be!

Date:

Astronomy

Feb. 09, 2013 Rise Set
Actual Time 7:11 AM CST 5:37 PM CST
Civil Twilight 6:42 AM CST 6:05 PM CST
Nautical Twilight 6:10 AM CST 6:38 PM CST
Astronomical Twilight 5:38 AM CST 7:10 PM CST
Moon 6:23 AM CST (2/9) 5:20 PM CST (2/9)
Length of Visible Light 11h 22m
Length of Day
10h 25m
Waning Crescent, 0% of the Moon is Illuminated
Feb 9
Waning Crescent
Feb 10
New
Feb 17
First Quarter
Feb 25
Full
Mar 4
Last Quarter

Hourly Weather History & Observations

Time (CST) Temp. Windchill Dew Point Humidity Pressure Visibility Wind Dir Wind Speed Gust Speed Precip Events Conditions
12:28 AM 28.4 °F 17.5 °F 24.8 °F 86% 30.29 in 9.0 mi South 13.8 mph - N/A   Overcast
12:53 AM 28.0 °F 16.5 °F 24.1 °F 85% 30.31 in 9.0 mi South 15.0 mph - N/A   Overcast
1:53 AM 28.9 °F 19.8 °F 24.1 °F 82% 30.30 in 9.0 mi SSE 10.4 mph - N/A   Overcast
2:53 AM 28.9 °F 17.7 °F 24.1 °F 82% 30.30 in 10.0 mi SSE 15.0 mph - N/A   Overcast
3:53 AM 28.9 °F 21.1 °F 25.0 °F 85% 30.29 in 9.0 mi South 8.1 mph - N/A   Overcast
4:53 AM 28.9 °F 19.2 °F 25.0 °F 85% 30.29 in 10.0 mi South 11.5 mph - N/A   Overcast
5:53 AM 28.9 °F 17.7 °F 25.0 °F 85% 30.28 in 10.0 mi SSE 15.0 mph - N/A   Overcast
6:53 AM 28.9 °F 20.4 °F 25.0 °F 85% 30.27 in 10.0 mi SSE 9.2 mph - N/A   Overcast
7:53 AM 28.9 °F 17.7 °F 25.0 °F 85% 30.26 in 9.0 mi SE 15.0 mph - N/A   Overcast
8:53 AM 28.9 °F 16.9 °F 25.0 °F 85% 30.24 in 9.0 mi SE 17.3 mph - N/A   Overcast
9:53 AM 30.0 °F 19.1 °F 26.1 °F 85% 30.24 in 8.0 mi SSE 15.0 mph - N/A   Overcast
10:53 AM 30.0 °F 19.5 °F 26.1 °F 85% 30.23 in 7.0 mi SSE 13.8 mph - N/A   Overcast
11:53 AM 30.0 °F 18.7 °F 26.1 °F 85% 30.21 in 7.0 mi SSE 16.1 mph - N/A   Overcast
12:53 PM 30.9 °F 19.1 °F 26.1 °F 82% 30.16 in 8.0 mi SSE 18.4 mph - N/A   Overcast
1:53 PM 32.0 °F 21.6 °F 27.0 °F 82% 30.12 in 7.0 mi SSE 15.0 mph 20.7 mph N/A   Overcast
2:53 PM 33.8 °F 24.3 °F 26.6 °F 75% 30.06 in 8.0 mi SSE 13.8 mph - N/A   Mostly Cloudy
3:16 PM 33.8 °F 23.5 °F 26.6 °F 75% 30.05 in 9.0 mi SE 16.1 mph - N/A   Scattered Clouds
3:53 PM 35.1 °F 25.9 °F 27.0 °F 72% 30.05 in 10.0 mi SE 13.8 mph - N/A   Clear
4:53 PM 35.1 °F 25.9 °F 27.0 °F 72% 30.02 in 10.0 mi SE 13.8 mph - N/A   Partly Cloudy
5:53 PM 33.1 °F 24.9 °F 27.0 °F 78% 30.02 in 10.0 mi SSE 10.4 mph - N/A   Clear
6:53 PM 32.0 °F 23.0 °F 27.0 °F 82% 30.00 in 10.0 mi SE 11.5 mph - N/A   Partly Cloudy
7:53 PM 33.1 °F 24.4 °F 28.0 °F 82% 30.00 in 10.0 mi SE 11.5 mph - N/A   Clear
8:53 PM 30.9 °F 22.8 °F 27.0 °F 85% 29.98 in 8.0 mi ESE 9.2 mph - N/A   Clear
9:53 PM 33.1 °F 25.5 °F 28.0 °F 82% 29.95 in 9.0 mi SE 9.2 mph - N/A   Clear
10:53 PM 34.0 °F 25.5 °F 28.0 °F 79% 29.95 in 10.0 mi SSE 11.5 mph - N/A   Mostly Cloudy
11:53 PM 34.0 °F 25.0 °F 28.9 °F 82% 29.94 in 4.0 mi SSE 12.7 mph - 0.02 in Rain Rain